Regional Weather Roundup
Issued by NWS Charleston, SC

Current Version | Previous Version | Graphics & Text | Print | Product List | Glossary On
Versions: 1 2 3 4 5 6 7 8 9 10 11 12 13 14 15 16 17 18 19 20 21 22 23 24 25 26 27 28 29 30 31 32 33 34 35 36 37 38 39 40 41 42 43 44 45 46 47 48 49 50
366 ASUS42 KCHS 220427 RWRCHS REGIONAL WEATHER ROUNDUP NATIONAL WEATHER SERVICE CHARLESTON SC 1200 AM EDT SAT JUL 22 2017 NOTE: "FAIR" INDICATES FEW OR NO CLOUDS BELOW 12,000 FEET WITH NO SIGNIFICANT WEATHER AND/OR OBSTRUCTIONS TO VISIBILITY. NOT ALL STATIONS ARE QUALITY CONTROLLED. USE DATA WITH CAUTION... ESPECIALLY DEWPOINT OBSERVATIONS. SCZ027-030-031-034>040-042>050-220500- ...SOUTHEAST SOUTH CAROLINA... CITY SKY/WX TMP DP RH WIND PRES REMARKS N CHARLESTON CLEAR 78 75 90 S6 30.03S WATERFRONT PRK N/A 82 78 88 SW5 30.01S HX 91 JOHNS ISLAND FAIR 81 77 89 S5 30.03F PINOPOLIS N/A 79 75 89 VRB2 29.95F MONCKS CORNER FAIR 75 75 100 SW5 30.03S SUMMERVILLE FAIR 77 73 88 CALM 30.04S BEAUFORT MCAS CLEAR 81 78 91 VRB3 30.03S BEAUFORT ARPT FAIR 81 77 89 S5 30.02F HILTON HEAD IS CLEAR 81 77 89 CALM 30.04F WALTERBORO CLEAR 77 73 88 S5 30.04S ALLENDALE NOT AVBL ...SOUTHERN MIDLANDS AND PEE DEE... CITY SKY/WX TMP DP RH WIND PRES REMARKS GEORGETOWN FAIR 75 73 94 CALM 30.03F KINGSTREE FAIR 75 72 88 CALM 30.01F ORANGEBURG CLEAR 78 73 84 S3 30.02F BARNWELL FAIR 77 75 94 CALM 30.03S AIKEN FAIR 75 72 88 S7 30.06S MANNING FAIR 81 77 89 W23 30.02S COLUMBIA PTCLDY 80 72 76 SW5 30.01S SUMTER CLOUDY 81 73 76 S7 29.99F FLORENCE CLEAR 80 75 84 SW8 30.01F MYRTLE BEACH CLEAR 80 76 87 SW7 30.03 N MYRTLE BEACH CLEAR 80 78 94 SW10 30.01F $$ GAZ063-065-086>088-099>101-113>116-118-119-134>141-150-220500- ...SOUTHEAST GEORGIA... CITY SKY/WX TMP DP RH WIND PRES REMARKS SAVANNAH ARPT CLEAR 81 73 76 W3 30.04S HUNTER AAF CLEAR 78 75 90 S3 30.01S FORT STEWART CLEAR 76 72 86 CALM 30.02S STATESBORO CLEAR 76 76 100 CALM 30.03S SYLVANIA CLEAR 76 75 99 SW3 30.04S CLAXTON FAIR 74 73 98 CALM 30.04S ...CSRA...CENTRAL AND FAR SOUTHEAST GEORGIA... CITY SKY/WX TMP DP RH WIND PRES REMARKS THOMSON CLEAR 73 69 87 W3 30.08S AUGUSTA-BUSH CLEAR 79 73 82 CALM 30.02F AUGUSTA-DANIEL CLEAR 80 67 64 SW6 30.04S SWAINSBORO FAIR 73 73 100 CALM 30.04F VIDALIA CLEAR 73 72 94 S3 30.05S EASTMAN FAIR 77 74 92 S3 30.07R HAZLEHURST FAIR 74 74 100 CALM 30.04S ALMA CLEAR 74 72 93 NW3 30.04S WAYCROSS CLEAR 77 77 100 NW3 30.04R JESUP NOT AVBL BAXLEY FAIR 73 73 100 CALM 30.04S BRUNSWICK CLEAR 75 73 94 CALM 30.04S SAINT SIMONS CLEAR 80 74 81 N3 30.03F $$ SCZ027-028-034-036>038-045-046-048>050-GAZ119-141-220500- ...LAKE AND SUPPLEMENTAL COASTAL OBSERVATIONS... STATION/POSITION TIME TEMP WIND PRES WAVE SWELL AIR SEA DIR/SP/G HT/PER HT/PER/DIR (UTC) (F) (DEG/KT/KT) (MB) (FT/S) (FT/S/D) WINYAH BAY 0345 80 230/ 4 1017.0S LAKE MURRAY 0350 83 240/ 5/ 10 1015.2F ACE BASIN NERRS 0345 80 CALM 1017.0S FORT PULASKI 0400 81 86 220/ 5/ 6 1017.6 SAPELO ISLAND 0400 78 CALM 1017.0 $$ ANZ835-935-AMZ111-154-330-350-352-354-370-450-454-472-220500- ...C-MAN AND BUOY OBSERVATIONS... STATION/POSITION TIME TEMP WIND PRES WAVE SWELL AIR SEA DIR/SP/G HT/PER HT/PER/DIR (UTC) (F) (DEG/KT/KT) (MB) (FT/S) (FT/S/D) BUOY 41004 0410 83 84 220/ 12/ 14 1016.5 BUOY 41008 0350 82 82 210/ 8/ 8 1017.3 2/ 9 2/130/ 9 FOLLY BEACH CMAN 0400 82 200/ 12/ 13 1017.5F CAPERS NEARSHORE 0408 80 84 220/ 14/ 19 1016.7F FRIPP NEARSHORE 0408 83 84 220/ 12/ 16 1016.9R STATION/POSITION TIME TEMP WIND PRES WAVE SWELL AIR SEA DIR/SP/G HT/PER HT/PER/DIR (UTC) (F) (DEG/KT/KT) (MB) (FT/S) (FT/S/D) 5E ST. MARYS GA 0400 82 N/A 2/14 FRYING PAN BUOY 0410 83 83 220/ 16/ 17 1016.5 BUOY 41025 0350 83 84 230/ 19/ 23 1015.6F 5/ 5 2/130/ 8 CAPE LOOKOUT NC 0400 81 220/ 12/ 16 1015.8F BUOY 41002 0350 82 84 200/ 14/ 16 1018.6F 4/ 8 3/100/ 8 BUOY 41010 0410 84 85 180/ 10/ 12 1018.5 ST AUGUSTINE FL 0400 78 82 190/ 10/ 12 1018.1S $$

USA.gov is the U.S. government's official web portal to all federal, state and local government web resources and services.